Location: *
(49.5667°N, 1.3667°W)
Time: 12:09:49
(UTC+00:00)

USA 186 - Pass Details

Date: 20 September 2019
Orbit: 261 x 450 km, 96.9° (Epoch: 07 October)

Event Time Altitude Azimuth Distance (km) Brightness Sun altitude
Exits shadow 20:12:28 10° 202° (SSW) 1,604 4.6 -20.1°
Reaches altitude 10° 20:12:32 10° 203° (SSW) 1,579 4.6 -20.1°
Maximum altitude 20:15:33 29° 265° (W) 868 3.9 -20.6°
Drops below altitude 10° 20:18:36 10° 327° (NNW) 1,597 5.6 -21.0°
Sets 20:20:50 0° 339° (NNW) 2,467 6.4 -21.3°
